NOAA 16 DEB, 42406

Orbit data source: Space-Track

NOAA 16 DEB, 42406 is space debris in SSO originally from a launch on Thu, 21 Sep 2000 UTC launched from the Air Force Western Test Range (AFWTR). Debris objects in space refer to the collection of defunct objects orbiting the Earth. Examples of debris include non-operational satellites, rocket bodies, and fragments generated from explosions, collisions, or faulty payload assembly.

Loading next visibility...
Identifier
42406, 2000-055TA
Orbit
SSO
Country
Flag of USUS
Related business
Manufacturer
Unknown
Mission
Spacecraft
Bus & Motor
Unknown
Mass
Unknown
Launch date (UTC)
2000-09-21 (25 years ago)
Launch vehicle
Unknown
Launch site
Air Force Western Test Range (AFWTR)
Object type
Payload
Rocket body
Debris
Shape & HBR
Unknown shape, 0.1 m
Radar Cross Section
Small (<0.1 m²)

Expand to show TLE details & history
Last TLE update: 17 hours ago

TLE from 17 hours ago
0 NOAA 16 DEB
1 42406U 00055TA  25305.43605099  .00001518  00000-0  73807-3 0  9990
2 42406  98.5984   3.2599 0015965 250.6298 109.3153 14.19623478496698
Epoch: 2025-11-01T10:27Z
TLE epoch observation values (Epoch: 2025-11-01T10:27:54.805Z)
Latitude
-0.00002°
Longitude
165.31539°
Altitude
833.366 km
Speed
7.434 km/s
True Right ascension
00h 13m 02s
True Declination
0° 00' 00"
Sunlit
Object was in full shadow at epoch
Visualization orbit readout
Latitude
Unknown
Longitude
Unknown
Altitude
Unknown
Speed
Unknown
Apparent Right ascension
Unknown
Apparent Declination
Unknown
Sunlit
N/A
Visualization observer readout
Local Sidereal Time
23:20:13
Azimuth
Unknown
Elevation
Unknown
Doppler factor
Unknown
Orbital elements
Apogee altitude
835.278 km
Perigee altitude
812.282 km
Semi-major axis
7,201.917 km
Eccentricity
0.0016
Inclination
98.5984°
RAAN
3.2599°
Arg. of periapsis
250.6298°
True anomaly
109.48783°
Mean anomaly
109.3153°
Eccentric anomaly
109.40158°
Mean motion
3.55117 °/min
Orbital period
101.38 mins
BSTAR
0.00073807
Loading maneuver chart data...
Computing Atmospheric mass density...
Loading historical data...
Loading historical data...
Loading historical data...
Loading historical data...
Loading historical data...
Loading historical data...
Loading historical data...

Documentation

Showing up to 5 results
|